Terug naar catalogus

STRV 1A

ActiefWetenschapHEO
NORAD 23125·PAYLOAD·🇬🇧 United Kingdom

Gelanceerd Jun 17, 1994 vanaf Guiana Space Centre

Loading…

Volgende Passages (komende 24 uur)

TLE

VersSource: Space-Track

Epoch: Sep 14, 2026, 12:06 UTC

1 23125U 94034B   26257.50484410  .00010509  00000-0  13183-2 0  9994
2 23125   7.3418 177.2537 6420363 356.9697   0.5054  3.45101623337270

Volg STRV 1A in realtime met AllMySat

Download on the App Store